GW3446 Weather Reports


time (UTC)temp
C
wind
direction
speed
KPH
gust
KPH
rain 1hr
cm
rain 24hr
cm
rain mn
cm
humidity
%
barometer
mb
20260510204519 18 103 9.7 22.5 0.00 0.18 0.18 33 1024.3
20260510203024 18 19 8.0 25.7 0.00 0.18 0.18 36 1024.4
20260510201508 18 46 8.0 25.7 0.00 0.18 0.18 35 1024.4
20260510200016 18 47 14.5 29.0 0.00 0.18 0.18 35 1024.4
20260510194527 18 61 17.7 27.4 0.00 0.18 0.18 35 1024.3
20260510193025 18 25 20.9 30.6 0.00 0.18 0.18 40 1024.4
20260510191513 18 83 11.3 30.6 0.00 0.18 0.18 43 1024.4
20260510190020 17 40 12.9 27.4 0.00 0.18 0.18 41 1024.6
20260510184531 17 33 9.7 35.4 0.00 0.18 0.18 43 1024.8
20260510183026 17 57 16.1 32.2 0.00 0.18 0.18 44 1024.9
20260510181516 16 41 12.9 27.4 0.00 0.18 0.18 47 1025.0
20260510180021 16 51 11.3 29.0 0.00 0.18 0.18 48 1025.1
20260510174506 16 352 16.1 33.8 0.00 0.18 0.18 47 1025.2
20260510173012 16 21 17.7 24.1 0.00 0.18 0.18 51 1025.1
20260510171519 15 44 17.7 27.4 0.00 0.18 0.18 52 1025.1
20260510170024 15 33 16.1 25.7 0.00 0.18 0.18 58 1025.0
20260510164508 13 53 11.3 25.7 0.00 0.18 0.18 64 1025.0
20260510163012 13 71 17.7 30.6 0.00 0.18 0.18 68 1024.8
20260510161519 12 61 12.9 27.4 0.00 0.18 0.18 72 1024.9
20260510160025 11 55 11.3 30.6 0.03 0.18 0.18 76 1024.3
20260510154511 10 67 17.7 27.4 0.03 0.18 0.18 80 1024.2
20260510153019 8 72 11.3 25.7 0.08 0.18 0.18 85 1023.8
20260510151522 8 45 8.0 17.7 0.13 0.18 0.18 87 1024.0
20260510150009 8 57 9.7 25.7 0.15 0.15 0.15 87 1023.5
20260510144518 8 38 12.9 24.1 0.15 0.15 0.15 87 1023.7
20260510143006 8 44 16.1 27.4 0.10 0.10 0.10 87 1023.4
20260510141504 8 43 11.3 22.5 0.05 0.05 0.05 86 1024.2
20260510140008 8 51 12.9 29.0 0.00 0.00 0.00 83 1024.4
20260510134514 9 342 12.9 24.1 0.00 0.00 0.00 83 1024.0
20260510130013 10 12 19.3 33.8 0.00 0.00 0.00 81 1022.8
20260510124517 10 47 12.9 25.7 0.00 0.00 0.00 77 1022.4
20260510121506 11 352 12.9 24.1 0.00 0.00 0.00 70 1021.7
20260510120014 11 25 14.5 25.7 0.00 0.00 0.00 66 1021.1
20260510114518 12 20 12.9 27.4 0.00 0.00 0.00 63 1020.7
20260510113005 12 53 16.1 25.7 0.00 0.00 0.00 61 1020.0
20260510111506 12 29 14.5 29.0 0.00 0.00 0.00 60 1019.2
20260510110030 12 90 14.5 29.0 0.00 0.00 0.00 60 1018.5
20260510104520 12 76 12.9 27.4 0.00 0.00 0.00 59 1018.8
20260510103006 12 51 16.1 30.6 0.00 0.00 0.00 58 1018.9
20260510101510 13 38 17.7 27.4 0.00 0.00 0.00 58 1019.2
20260510094522 13 69 16.1 33.8 0.00 0.00 0.00 59 1018.8
20260510093008 13 42 19.3 37.0 0.00 0.00 0.00 59 1018.8
20260510091511 13 55 19.3 37.0 0.00 0.00 0.00 60 1018.5
20260510090025 13 34 14.5 38.6 0.00 0.00 0.00 60 1018.3
20260510084524 13 56 20.9 35.4 0.00 0.00 0.00 61 1018.1
20260510083013 13 51 19.3 38.6 0.00 0.00 0.00 63 1018.2
20260510081516 13 42 17.7 32.2 0.00 0.00 0.00 64 1018.0
20260510080019 13 36 20.9 37.0 0.00 0.00 0.00 64 1017.8
20260510074525 13 38 24.1 37.0 0.00 0.00 0.00 64 1018.1
20260510073010 13 22 22.5 41.8 0.00 0.00 0.00 65 1018.3
20260510070004 13 27 12.9 25.7 0.00 0.00 0.00 73 1018.2
20260510064503 13 50 12.9 25.7 0.00 0.00 0.00 75 1017.9
20260510060003 12 51 12.9 22.5 0.00 0.00 0.00 75 1015.5
20260510054503 13 62 11.3 22.5 0.00 0.00 0.00 72 1014.9
20260510053004 13 57 11.3 19.3 0.00 0.00 0.00 69 1014.7
20260510050003 14 90 6.4 14.5 0.00 0.00 0.00 68 1014.4
20260510044503 15 61 4.8 17.7 0.00 0.00 0.00 67 1014.1
20260510043004 15 73 8.0 16.1 0.00 0.00 0.00 69 1014.1
20260510041504 15 62 6.4 14.5 0.00 0.00 0.00 66 1013.9
20260510033003 17 98 8.0 19.3 0.00 0.00 0.00 60 1012.7
20260510031504 17 94 3.2 16.1 0.00 0.00 0.00 55 1012.1
20260510030007 17 94 0.0 14.5 0.00 0.00 0.00 56 1011.3
20260510021503 21 22 6.4 20.9 0.00 0.00 0.00 37 1009.6
20260510020004 23 338 6.4 19.3 0.00 0.00 0.00 31 1009.1
20260510014504 24 304 6.4 17.7 0.00 0.00 0.00 30 1008.5
20260510011506 26 360 8.0 24.1 0.00 0.00 0.00 26 1007.8
20260510010006 27 351 6.4 16.1 0.00 0.00 0.00 25 1007.6
20260510004504 28 25 6.4 24.1 0.00 0.00 0.00 25 1007.4
20260510003013 29 225 9.7 24.1 0.00 0.00 0.00 23 1007.4
20260510000008 29 44 4.8 17.7 0.00 0.00 0.00 26 1007.5
20260509234513 28 264 3.2 24.1 0.00 0.00 0.00 23 1007.5
20260509233004 28 188 11.3 22.5 0.00 0.00 0.00 24 1007.6
20260509231508 27 115 8.0 16.1 0.00 0.00 0.00 31 1007.6
20260509230006 26 212 3.2 6.4 0.00 0.00 0.00 30 1007.8
20260509224509 28 211 3.2 17.7 0.00 0.00 0.00 26 1007.5
20260509223004 27 200 4.8 16.1 0.00 0.00 0.00 29 1007.4
20260509221509 26 170 1.6 9.7 0.00 0.00 0.00 27 1007.3
20260509220012 26 262 3.2 17.7 0.00 0.00 0.00 30 1007.5
20260509213011 28 215 14.5 27.4 0.00 0.00 0.00 21 1007.2
20260509211511 30 269 16.1 33.8 0.00 0.00 0.00 20 1007.2
20260509210010 29 164 14.5 30.6 0.00 0.00 0.00 21 1007.8